Location: Saint-Maurice-d�Ard�che
(44.5216°N, 4.4002°E)
Time: 18:08:51
(UTC+00:00)

Cosmos 1602 Rocket - Pass Details

Date: 30 March 2020
Orbit: 603 x 634 km, 82.5° (Epoch: 31 May)

Event Time Altitude Azimuth Distance (km) Brightness Sun altitude
Rises 19:11:36 0° 356° (N) 2,936 7.3 -11.9°
Reaches altitude 10° 19:13:56 10° 3° (N) 2,021 6.4 -12.3°
Maximum altitude 19:18:16 47° 77° (ENE) 841 3.9 -13.0°
Enters shadow 19:21:49 14° 148° (SSE) 1,724 5.4 -13.6°
